Location: Blackfoot
(53.5367°N, 112.7800°W)
Time: 16:16:44
(UTC-06:00)

Amateur Radio Satellites - All Passes

Search period start: 16 October 2017 15:46
Search period end: 17 October 2017 15:46
Location: Blackfoot, 53.5367°N, 112.7800°W

Satellite Date Start Highest point End Downlink Frequencies (MHz)
Time Altitude Azimuth
VELOX 1 16 Oct 15:47:17 15:50:54 25° 300° (WNW) 15:54:30 145.980
BEESAT 3 16 Oct 15:47:32 15:51:30 54° 321° (NW) 15:55:29 437.485
50 SAT 16 Oct 15:48:16 15:51:23 39° 291° (WNW) 15:54:30 437.505
AO-85 16 Oct 15:48:43 15:52:29 51° 127° (SE) 15:56:26 145.980
UKube-1 16 Oct 16:04:29 16:08:48 70° 288° (WNW) 16:13:06 .
PCSat 16 Oct 16:06:47 16:11:08 24° 18° (NNE) 16:15:28 145.827
DOVE 4 16 Oct 16:07:14 16:09:45 16° 54° (NE) 16:12:20 437.250
AO-7 16 Oct 16:17:25 16:25:39 63° 255° (WSW) 16:33:54 .
Gurwin Techsat 1B 16 Oct 16:25:29 16:26:52 11° 279° (W) 16:28:14 435.225
ITAMSAT 1 16 Oct 16:47:24 16:52:20 44° 261° (W) 16:57:21 435.822/435.867
CUTE-I 16 Oct 16:47:46 16:50:54 16° 48° (NE) 16:54:03 437.470
nSIGHT-1 16 Oct 16:50:57 16:54:04 49° 194° (SSW) 16:57:12 .
BEESAT 2 16 Oct 16:57:53 17:01:44 41° 325° (NW) 17:05:38 435.950
HO-68 16 Oct 17:01:29 17:06:06 19° 38° (NE) 17:10:44 435.675
ITUPSAT 1 16 Oct 17:03:01 17:07:51 67° 104° (ESE) 17:12:37 437.325
DX 1 16 Oct 17:08:12 17:10:59 17° 306° (NW) 17:13:47 434.975-435.025
SO-50 16 Oct 17:11:08 17:15:37 55° 232° (SW) 17:20:09 436.795
ISS 16 Oct 17:12:43 17:15:52 44° 197° (SSW) 17:19:00 437.550
CUBESAT XI-V 16 Oct 17:15:07 17:19:08 29° 94° (E) 17:23:09 437.345
MOZHAYETS 4 16 Oct 17:15:25 17:20:04 83° 284° (WNW) 17:24:38
LilacSat-2 16 Oct 17:19:15 17:21:56 18° 60° (ENE) 17:24:36 437.200
BEESAT 16 Oct 17:21:35 17:26:26 86° 285° (WNW) 17:31:13 436.000
XW-2F 16 Oct 17:23:34 17:26:09 18° 60° (ENE) 17:28:44 145.980 - 146.000
BEESAT 3 16 Oct 17:26:46 17:29:50 20° 343° (NNW) 17:32:54 437.485
AO-85 16 Oct 17:29:25 17:33:04 34° 330° (NNW) 17:36:54 145.980
KAITUO 1B 16 Oct 17:29:36 17:32:00 17° 59° (ENE) 17:34:25 145.475/437.950
XW-2D 16 Oct 17:31:53 17:34:53 22° 62° (ENE) 17:37:53 145.860 - 145.880
KKS-1 16 Oct 17:38:17 17:41:10 16° 89° (E) 17:44:01 437.445
UKube-1 16 Oct 17:42:05 17:44:05 13° 309° (NW) 17:46:04 .
DOVE 4 16 Oct 17:42:38 17:46:49 88° 264° (W) 17:51:12 437.250
XW-2B 16 Oct 17:44:50 17:48:07 28° 65° (ENE) 17:51:23 145.730 - 145.750
PCSat 16 Oct 17:50:18 17:55:40 55° 42° (NE) 18:00:59 145.827
NUDT-PHONESAT 16 Oct 17:50:23 17:53:24 24° 63° (ENE) 17:56:25 437.300
YUBILEINY 16 Oct 17:57:44 17:58:42 10° 22° (NNE) 17:59:39 435.215
XW-2C 16 Oct 18:07:21 18:11:00 46° 69° (ENE) 18:14:40 145.795 - 145.815
AO-7 16 Oct 18:15:20 18:20:12 16° 278° (W) 18:25:06 .
STARS 16 Oct 18:23:12 18:26:25 19° 90° (E) 18:29:37 437.465
CUTE-I 16 Oct 18:24:47 18:30:03 66° 69° (ENE) 18:35:23 437.470
UWE-3 16 Oct 18:25:14 18:27:02 12° 50° (NE) 18:28:50 435.000/436.395/437.385
nSIGHT-1 16 Oct 18:27:35 18:29:54 18° 213° (SSW) 18:32:12 .
BEESAT 2 16 Oct 18:37:31 18:40:27 18° 348° (NNW) 18:43:21 435.950
ITUPSAT 1 16 Oct 18:41:29 18:45:17 23° 303° (WNW) 18:49:03 437.325
HO-68 16 Oct 18:45:31 18:52:27 55° 62° (ENE) 18:59:26 435.675
ISS 16 Oct 18:49:46 18:51:47 15° 216° (SW) 18:53:49 437.550
LilacSat-2 16 Oct 18:52:03 18:55:51 59° 259° (W) 18:59:39 437.200
CUBESAT XI-V 16 Oct 18:52:18 18:56:41 44° 293° (WNW) 19:01:02 437.345
MOZHAYETS 4 16 Oct 18:53:46 18:56:33 16° 307° (NW) 18:59:18
SO-50 16 Oct 18:54:31 18:55:09 10° 252° (WSW) 18:55:46 436.795
CUTE 1.7 + AOD 2 16 Oct 18:55:42 18:59:38 38° 66° (ENE) 19:03:34 437.475
XW-2F 16 Oct 18:56:09 18:59:54 60° 259° (WSW) 19:03:39 145.980 - 146.000
XW-2A 16 Oct 18:58:41 19:00:47 15° 60° (ENE) 19:02:52 145.665 - 145.685
BEESAT 16 Oct 19:00:25 19:03:33 18° 307° (NW) 19:06:41 436.000
KAITUO 1B 16 Oct 19:01:52 19:05:35 64° 258° (WSW) 19:09:19 145.475/437.950
XW-2D 16 Oct 19:05:11 19:08:51 44° 261° (W) 19:12:31 145.860 - 145.880
BEESAT 3 16 Oct 19:06:00 19:08:42 17° 7° (N) 19:11:24 437.485
CUBEBUG 2 16 Oct 19:11:11 19:15:29 37° 65° (ENE) 19:19:51 437.445
SEEDS 16 Oct 19:11:22 19:15:11 35° 66° (ENE) 19:19:00 437.485
AO-85 16 Oct 19:11:40 19:14:35 18° 354° (N) 19:17:38 145.980
KKS-1 16 Oct 19:13:46 19:18:16 78° 288° (WNW) 19:22:45 437.445
XW-2B 16 Oct 19:18:44 19:22:13 34° 263° (W) 19:25:44 145.730 - 145.750
DOVE 4 16 Oct 19:23:32 19:25:18 12° 276° (W) 19:27:06 437.250
NUDT-PHONESAT 16 Oct 19:23:35 19:27:06 39° 262° (W) 19:30:38 437.300
AO-73 16 Oct 19:27:28 19:30:45 20° 57° (ENE) 19:34:03 145.935
PCSat 16 Oct 19:33:58 19:38:56 37° 244° (WSW) 19:43:53 145.827
STRAND 1 16 Oct 19:37:59 19:40:34 14° 84° (E) 19:43:10 437.568
XW-2C 16 Oct 19:42:30 19:45:24 21° 268° (W) 19:48:20 145.795 - 145.815
ZACube-1 16 Oct 19:46:00 19:49:57 29° 62° (ENE) 19:53:55 437.345
AAUSAT CUBESAT 2 16 Oct 19:48:17 19:52:07 38° 67° (ENE) 19:55:57 437.432
YUBILEINY 16 Oct 19:52:20 19:59:39 28° 54° (NE) 20:06:56 435.215
UWE-3 16 Oct 19:57:59 20:02:33 57° 70° (ENE) 20:07:10 435.000/436.395/437.385
STARS 16 Oct 19:58:46 20:03:11 65° 290° (WNW) 20:07:35 437.465
CUTE-I 16 Oct 20:06:19 20:10:35 24° 269° (W) 20:14:54 437.470
BEESAT 2 16 Oct 20:16:36 20:19:31 19° 12° (NNE) 20:22:26 435.950
DELFI C3 16 Oct 20:23:34 20:24:47 11° 53° (NE) 20:26:00 145.870
XW-2A 16 Oct 20:29:44 20:33:07 58° 258° (WSW) 20:36:31 145.665 - 145.685
Oscar 11 16 Oct 20:30:10 20:34:18 43° 67° (ENE) 20:38:25 .
CUTE 1.7 + AOD 2 16 Oct 20:31:49 20:35:33 29° 266° (W) 20:39:17 437.475
HO-68 16 Oct 20:33:43 20:40:26 42° 263° (W) 20:47:13 435.675
Max Valier Satellite 16 Oct 20:36:39 20:37:23 10° 54° (NE) 20:38:09 145.860
BEESAT 3 16 Oct 20:43:42 20:47:22 31° 30° (NNE) 20:50:57 437.485
SEEDS 16 Oct 20:47:10 20:50:55 31° 265° (W) 20:54:40 437.485
CUBEBUG 2 16 Oct 20:47:46 20:52:05 37° 264° (W) 20:56:31 437.445
KKS-1 16 Oct 20:51:39 20:54:08 15° 308° (NW) 20:56:37 437.445
AO-85 16 Oct 20:52:55 20:56:20 23° 19° (NNE) 20:59:56 145.980
FO-29 16 Oct 20:55:19 20:59:39 18° 85° (E) 21:04:14 435.910
AO-73 16 Oct 21:01:56 21:06:30 75° 257° (WSW) 21:11:06 145.935
STRAND 1 16 Oct 21:15:28 21:20:40 75° 104° (ESE) 21:25:50 437.568
ZACube-1 16 Oct 21:21:38 21:26:04 46° 262° (W) 21:30:31 437.345
AAUSAT CUBESAT 2 16 Oct 21:24:07 21:27:40 28° 266° (W) 21:31:14 437.432
UWE-3 16 Oct 21:35:36 21:39:20 23° 269° (W) 21:43:06 435.000/436.395/437.385
STARS 16 Oct 21:36:46 21:38:44 13° 310° (NW) 21:40:41 437.465
O/OREOS (USA 219) 16 Oct 21:39:34 21:42:43 19° 101° (ESE) 21:45:54 437.305
YUBILEINY 16 Oct 21:49:00 21:57:51 87° 79° (E) 22:06:41 435.215
BEESAT 2 16 Oct 21:54:19 21:58:13 41° 35° (NE) 22:02:03 435.950
DELFI C3 16 Oct 21:54:56 21:58:50 71° 73° (ENE) 22:02:45 145.870
ESTCUBE 1 16 Oct 21:57:12 21:58:13 11° 48° (NE) 21:59:15 437.505/2401.250
EO-88 16 Oct 22:06:41 22:10:15 52° 71° (ENE) 22:13:51 145.990 - 145.960
Max Valier Satellite 16 Oct 22:06:47 22:10:31 70° 72° (ENE) 22:14:16 145.860
Oscar 11 16 Oct 22:06:53 22:10:35 27° 267° (W) 22:14:19 .
UNISAT 6 16 Oct 22:09:52 22:12:30 15° 85° (E) 22:15:05 437.425
BEESAT 3 16 Oct 22:21:13 22:25:10 59° 231° (SW) 22:29:01 437.485
TIGRISAT 16 Oct 22:25:24 22:28:40 19° 88° (E) 22:31:54 435.000
AO-85 16 Oct 22:33:09 22:37:28 62° 41° (NE) 22:42:07 145.980
FO-29 16 Oct 22:39:10 22:45:39 74° 104° (ESE) 22:52:55 435.910
AO-73 16 Oct 22:41:46 22:43:32 12° 276° (W) 22:45:17 145.935
PRISM 16 Oct 22:55:17 22:57:47 16° 89° (E) 23:00:17 437.425
STRAND 1 16 Oct 22:55:21 22:59:23 23° 305° (NW) 23:03:23 437.568
LO-87 16 Oct 23:09:40 23:13:03 40° 69° (ENE) 23:16:29 145.935 - 145.965
O/OREOS (USA 219) 16 Oct 23:17:02 23:21:36 74° 302° (WNW) 23:26:15 437.305
SPROUT 16 Oct 23:25:25 23:28:12 17° 56° (NE) 23:31:00 437.525
ESTCUBE 1 16 Oct 23:29:42 23:34:04 53° 69° (ENE) 23:38:28 437.505/2401.250
DELFI C3 16 Oct 23:31:51 23:34:03 14° 272° (W) 23:36:16 145.870
BEESAT 2 16 Oct 23:32:09 23:35:58 40° 236° (SW) 23:39:44 435.950
VELOX 1 16 Oct 23:38:56 23:41:53 18° 55° (NE) 23:44:49 145.980
EO-88 16 Oct 23:41:46 23:44:12 17° 270° (W) 23:46:40 145.990 - 145.960
Max Valier Satellite 16 Oct 23:42:50 23:44:48 14° 272° (W) 23:46:45 145.860
UNISAT 6 16 Oct 23:45:11 23:49:55 90° 129° (SE) 23:54:31 437.425
YUBILEINY 16 Oct 23:46:41 23:53:39 28° 283° (WNW) 00:00:38 435.215
TIGRISAT 17 Oct 00:01:12 00:05:54 73° 289° (WNW) 00:10:29 435.000
AO-85 17 Oct 00:13:51 00:17:42 29° 239° (WSW) 00:21:47 145.980
QB50P2 17 Oct 00:20:22 00:22:58 16° 88° (E) 00:25:34 145.880/145.840
AIST 2D 17 Oct 00:22:54 00:26:02 30° 96° (E) 00:29:08 435.315
FO-29 17 Oct 00:24:53 00:30:21 31° 303° (WNW) 00:36:22 435.910
NANOSAT C BR1 17 Oct 00:27:53 00:30:24 15° 87° (E) 00:32:53 145.865
PRISM 17 Oct 00:29:26 00:33:33 72° 287° (WNW) 00:37:38 437.425
DUCHIFAT 1 17 Oct 00:40:41 00:43:34 18° 89° (E) 00:46:27 145.980
LO-87 17 Oct 00:43:51 00:46:38 21° 268° (W) 00:49:28 145.935 - 145.965
50 SAT 17 Oct 00:51:12 00:53:35 19° 62° (ENE) 00:55:59 437.505
DX 1 17 Oct 00:57:13 01:00:47 26° 60° (ENE) 01:04:24 434.975-435.025
O/OREOS (USA 219) 17 Oct 00:58:38 01:01:51 18° 324° (NW) 01:05:06 437.305
SPROUT 17 Oct 00:59:16 01:03:34 81° 257° (WSW) 01:07:54 437.525
ESTCUBE 1 17 Oct 01:07:32 01:11:10 24° 268° (W) 01:14:50 437.505/2401.250
VELOX 1 17 Oct 01:13:25 01:17:48 81° 256° (WSW) 01:22:14 145.980
RS-15 17 Oct 01:21:34 01:32:01 35° 106° (ESE) 01:42:24 29.354- 29.394
UNISAT 6 17 Oct 01:22:55 01:26:00 18° 306° (NW) 01:29:03 437.425
UKube-1 17 Oct 01:29:19 01:33:10 33° 63° (ENE) 01:37:02 .
EO-79 17 Oct 01:31:25 01:35:41 61° 102° (ESE) 01:39:54 145.935-145.965
POLYITAN 1 17 Oct 01:34:59 01:39:16 65° 102° (ESE) 01:43:31 437.675
TIGRISAT 17 Oct 01:39:15 01:41:48 15° 308° (NW) 01:44:19 435.000
QB50P2 17 Oct 01:54:59 01:59:18 76° 288° (WNW) 02:03:34 145.880/145.840
AIST 2D 17 Oct 01:56:11 01:59:09 26° 295° (WNW) 02:02:05 435.315
NANOSAT C BR1 17 Oct 02:02:22 02:06:40 78° 285° (WNW) 02:10:55 145.865
PRISM 17 Oct 02:06:23 02:08:06 12° 308° (NW) 02:09:49 437.425
DUCHIFAT 1 17 Oct 02:15:26 02:19:41 67° 288° (WNW) 02:23:53 145.980
50 SAT 17 Oct 02:22:36 02:25:42 39° 261° (W) 02:28:50 437.505
M-CUBED/EXP-1 PRIME 17 Oct 02:28:17 02:30:19 15° 98° (E) 02:32:24 437.505
DX 1 17 Oct 02:32:34 02:36:45 49° 260° (W) 02:41:00 434.975-435.025
SPROUT 17 Oct 02:38:35 02:40:11 12° 275° (W) 02:41:48 437.525
BUGSAT 1 17 Oct 02:38:43 02:42:59 66° 103° (ESE) 02:47:11 437.445
ITUPSAT 1 17 Oct 02:39:04 02:43:09 28° 59° (ENE) 02:47:14 437.325
MOZHAYETS 4 17 Oct 02:46:47 02:50:53 32° 63° (ENE) 02:55:00
Oscar 19 17 Oct 02:49:54 02:54:49 44° 98° (E) 02:59:43 437.125/150
Gurwin Techsat 1B 17 Oct 02:50:10 02:55:00 34° 95° (E) 02:59:49 435.225
CUBESAT XI-V 17 Oct 02:50:31 02:52:14 12° 49° (NE) 02:53:56 437.345
VELOX 1 17 Oct 02:53:16 02:55:00 12° 275° (W) 02:56:44 145.980
BEESAT 17 Oct 02:56:50 03:01:15 38° 63° (ENE) 03:05:41 436.000
UKube-1 17 Oct 03:05:11 03:09:09 36° 262° (W) 03:13:10 .
EO-79 17 Oct 03:07:50 03:11:05 21° 301° (WNW) 03:14:19 145.935-145.965
POLYITAN 1 17 Oct 03:11:30 03:14:40 20° 302° (WNW) 03:17:48 437.675
RS-15 17 Oct 03:30:46 03:43:10 87° 132° (SE) 03:55:26 29.354- 29.394
QB50P2 17 Oct 03:32:14 03:34:23 14° 307° (NW) 03:36:31 145.880/145.840
NANOSAT C BR1 17 Oct 03:39:30 03:41:41 14° 307° (NW) 03:43:52 145.865
DUCHIFAT 1 17 Oct 03:52:52 03:54:34 12° 309° (NW) 03:56:15 145.980
M-CUBED/EXP-1 PRIME 17 Oct 04:01:44 04:05:04 58° 295° (WNW) 04:08:34 437.505
AO-7 17 Oct 04:11:44 04:18:57 32° 93° (E) 04:26:07 .
BUGSAT 1 17 Oct 04:14:50 04:17:56 20° 302° (WNW) 04:21:00 437.445
ITUPSAT 1 17 Oct 04:16:02 04:20:44 53° 259° (W) 04:25:29 437.325
MOZHAYETS 4 17 Oct 04:23:32 04:27:56 43° 262° (W) 04:32:23
CUBESAT XI-V 17 Oct 04:24:09 04:28:42 58° 69° (ENE) 04:33:15 437.345
Oscar 19 17 Oct 04:29:26 04:34:05 35° 299° (WNW) 04:38:43 437.125/150
Gurwin Techsat 1B 17 Oct 04:30:02 04:35:08 48° 295° (WNW) 04:40:12 435.225
BEESAT 17 Oct 04:34:36 04:39:02 37° 263° (W) 04:43:31 436.000
KKS-1 17 Oct 04:41:50 04:45:48 33° 63° (ENE) 04:49:47 437.445
ITAMSAT 1 17 Oct 04:53:17 04:58:15 41° 98° (E) 05:03:11 435.822/435.867
NO-84 17 Oct 04:57:00 04:59:15 14° 131° (SE) 05:01:29 435.350 FM
STARS 17 Oct 05:25:20 05:29:22 37° 64° (ENE) 05:33:27 437.465
DOVE 4 17 Oct 05:34:49 05:38:08 18° 88° (E) 05:41:33 437.250
RS-15 17 Oct 05:44:55 05:57:00 55° 342° (NNW) 06:08:48 29.354- 29.394
O/OREOS (USA 219) 17 Oct 06:02:33 06:06:17 23° 41° (NE) 06:10:00 437.305
CUBESAT XI-V 17 Oct 06:02:47 06:06:26 23° 269° (W) 06:10:05 437.345
AO-7 17 Oct 06:04:14 06:12:34 79° 295° (WNW) 06:20:52 .
Gurwin Techsat 1B 17 Oct 06:11:56 06:13:55 12° 316° (NW) 06:15:55 435.225
KKS-1 17 Oct 06:18:10 06:22:18 38° 262° (W) 06:26:29 437.445
LilacSat-2 17 Oct 06:21:19 06:21:48 10° 85° (E) 06:22:18 437.200
NO-84 17 Oct 06:31:53 06:36:00 49° 150° (SSE) 06:39:57 435.350 FM
XW-2D 17 Oct 06:32:23 06:34:12 13° 87° (E) 06:35:59 145.860 - 145.880
ITAMSAT 1 17 Oct 06:32:52 06:37:43 39° 298° (WNW) 06:42:34 435.822/435.867
CUTE-I 17 Oct 06:36:15 06:39:35 16° 86° (E) 06:42:53 437.470
XW-2B 17 Oct 06:45:11 06:47:39 17° 90° (E) 06:50:07 145.730 - 145.750
NUDT-PHONESAT 17 Oct 06:48:19 06:50:08 13° 88° (E) 06:51:56 437.300
STRAND 1 17 Oct 06:59:13 07:03:55 37° 62° (ENE) 07:08:38 437.568
STARS 17 Oct 07:01:46 07:05:44 33° 264° (W) 07:09:46 437.465
XW-2C 17 Oct 07:07:39 07:10:55 27° 94° (E) 07:14:10 145.795 - 145.815
DOVE 4 17 Oct 07:11:32 07:16:19 80° 288° (WNW) 07:21:23 437.250
FO-29 17 Oct 07:17:08 07:20:07 15° 44° (NE) 07:23:13 435.910
O/OREOS (USA 219) 17 Oct 07:41:36 07:46:15 78° 242° (WSW) 07:50:50 437.305
LilacSat-2 17 Oct 07:52:55 07:56:44 86° 104° (ESE) 08:00:30 437.200
HO-68 17 Oct 07:53:43 08:00:01 31° 92° (E) 08:06:17 435.675
XW-2F 17 Oct 07:55:41 07:59:27 82° 105° (ESE) 08:03:10 145.980 - 146.000
AO-7 17 Oct 07:57:35 08:04:19 29° 319° (NW) 08:11:03 .
RS-15 17 Oct 08:00:15 08:12:13 53° 14° (NNE) 08:23:40 29.354- 29.394
KAITUO 1B 17 Oct 08:00:20 08:04:03 74° 104° (ESE) 08:07:43 145.475/437.950
XW-2D 17 Oct 08:05:06 08:08:52 74° 287° (WNW) 08:12:36 145.860 - 145.880
NO-84 17 Oct 08:09:10 08:13:23 77° 351° (N) 08:17:19 435.350 FM
CUTE 1.7 + AOD 2 17 Oct 08:09:35 08:13:22 31° 95° (E) 08:17:06 437.475
CUTE-I 17 Oct 08:15:03 08:20:27 85° 106° (ESE) 08:25:51 437.470
ITAMSAT 1 17 Oct 08:15:29 08:15:54 10° 319° (NW) 08:16:18 435.822/435.867
XW-2B 17 Oct 08:18:29 08:22:11 56° 289° (WNW) 08:25:51 145.730 - 145.750
NUDT-PHONESAT 17 Oct 08:20:47 08:24:27 70° 287° (WNW) 08:28:06 437.300
SEEDS 17 Oct 08:24:00 08:27:36 28° 94° (E) 08:31:13 437.485
CUBEBUG 2 17 Oct 08:31:46 08:36:06 34° 95° (E) 08:40:18 437.445
STRAND 1 17 Oct 08:38:12 08:43:04 42° 262° (W) 08:47:59 437.568
XW-2C 17 Oct 08:41:44 08:45:09 33° 294° (WNW) 08:48:30 145.795 - 145.815
PCSat 17 Oct 08:43:11 08:44:07 10° 101° (E) 08:45:03 145.827
AO-73 17 Oct 08:44:43 08:47:15 15° 86° (E) 08:49:45 145.935
DOVE 4 17 Oct 08:50:26 08:53:23 17° 305° (NW) 08:56:25 437.250
FO-29 17 Oct 08:58:54 09:04:04 62° 68° (ENE) 09:09:41 435.910
AAUSAT CUBESAT 2 17 Oct 08:59:01 09:02:39 29° 94° (E) 09:06:17 437.432
ZACube-1 17 Oct 09:03:45 09:07:24 24° 91° (E) 09:10:57 437.345
YUBILEINY 17 Oct 09:04:26 09:10:34 22° 73° (ENE) 09:16:44 435.215
SO-50 17 Oct 09:10:50 09:15:11 52° 128° (SE) 09:19:36 436.795
UNISAT 6 17 Oct 09:13:59 09:17:56 28° 61° (ENE) 09:21:54 437.425
UWE-3 17 Oct 09:17:29 09:22:01 52° 99° (E) 09:26:24 435.000/436.395/437.385
XW-2A 17 Oct 09:17:33 09:20:54 57° 101° (ESE) 09:24:12 145.665 - 145.685
O/OREOS (USA 219) 17 Oct 09:22:51 09:24:51 13° 263° (W) 09:26:51 437.305
LilacSat-2 17 Oct 09:28:34 09:30:28 13° 304° (WNW) 09:32:20 437.200
TIGRISAT 17 Oct 09:29:30 09:33:41 34° 63° (ENE) 09:37:55 435.000
XW-2F 17 Oct 09:31:05 09:33:02 14° 303° (WNW) 09:34:58 145.980 - 146.000
KAITUO 1B 17 Oct 09:35:28 09:37:33 15° 302° (WNW) 09:39:38 145.475/437.950
HO-68 17 Oct 09:41:10 09:48:22 72° 294° (WNW) 09:55:32 435.675
XW-2D 17 Oct 09:41:21 09:42:21 11° 306° (NW) 09:43:22 145.860 - 145.880
CUTE 1.7 + AOD 2 17 Oct 09:45:23 09:49:15 36° 294° (WNW) 09:53:05 437.475
Oscar 11 17 Oct 09:46:46 09:50:48 36° 96° (E) 09:54:46 .
NO-84 17 Oct 09:46:54 09:50:59 78° 11° (N) 09:54:45 435.350 FM
PRISM 17 Oct 09:50:01 09:53:24 26° 62° (ENE) 09:56:49 437.425
AO-7 17 Oct 09:50:40 09:54:30 14° 345° (NNW) 09:58:20 .
CUTE-I 17 Oct 09:55:53 09:59:56 22° 307° (NW) 10:03:58 437.470
NUDT-PHONESAT 17 Oct 09:57:14 09:57:37 10° 306° (NW) 09:57:58 437.300
SEEDS 17 Oct 09:59:31 10:03:24 39° 293° (WNW) 10:07:17 437.485
CUBEBUG 2 17 Oct 10:08:21 10:12:46 40° 294° (WNW) 10:17:05 437.445
RS-15 17 Oct 10:14:00 10:26:14 87° 44° (NE) 10:37:47 29.354- 29.394
AO-73 17 Oct 10:19:39 10:24:07 83° 288° (WNW) 10:28:28 145.935
PCSat 17 Oct 10:21:05 10:26:19 53° 121° (ESE) 10:31:37 145.827
AAUSAT CUBESAT 2 17 Oct 10:34:23 10:38:10 36° 294° (WNW) 10:41:57 437.432
ZACube-1 17 Oct 10:39:36 10:43:58 51° 291° (WNW) 10:48:12 437.345
FO-29 17 Oct 10:45:29 10:49:47 25° 271° (W) 10:54:20 435.910
UNISAT 6 17 Oct 10:49:51 10:54:24 52° 261° (W) 10:59:01 437.425
XW-2A 17 Oct 10:51:14 10:53:14 15° 300° (WNW) 10:55:15 145.665 - 145.685
SO-50 17 Oct 10:51:34 10:55:49 39° 329° (NNW) 11:00:07 436.795
UWE-3 17 Oct 10:54:22 10:58:12 26° 300° (WNW) 11:01:56 435.000/436.395/437.385
EO-79 17 Oct 10:55:45 10:58:31 17° 56° (NE) 11:01:17 145.935-145.965
YUBILEINY 17 Oct 10:57:19 11:05:59 79° 97° (E) 11:14:45 435.215
POLYITAN 1 17 Oct 10:59:16 11:02:11 18° 57° (ENE) 11:05:07 437.675
DELFI C3 17 Oct 10:59:54 11:03:44 47° 99° (E) 11:07:34 145.870
EO-88 17 Oct 11:02:36 11:05:48 28° 95° (E) 11:08:57 145.990 - 145.960
AIST 2D 17 Oct 11:02:53 11:06:00 30° 67° (ENE) 11:09:09 435.315
Max Valier Satellite 17 Oct 11:04:06 11:07:36 38° 98° (E) 11:11:03 145.860
TIGRISAT 17 Oct 11:05:54 11:10:18 41° 263° (W) 11:14:46 435.000
QB50P2 17 Oct 11:18:25 11:22:00 27° 62° (ENE) 11:25:37 145.880/145.840
Oscar 11 17 Oct 11:23:02 11:26:53 32° 296° (WNW) 11:30:43 .
NO-84 17 Oct 11:24:32 11:28:15 43° 213° (SSW) 11:31:41 435.350 FM
PRISM 17 Oct 11:24:40 11:28:32 42° 261° (W) 11:32:25 437.425
NANOSAT C BR1 17 Oct 11:25:22 11:28:54 26° 61° (ENE) 11:32:27 145.865
HO-68 17 Oct 11:29:42 11:35:03 23° 316° (NW) 11:40:24 435.675
DUCHIFAT 1 17 Oct 11:37:56 11:41:37 29° 63° (ENE) 11:45:20 145.980
AO-7 17 Oct 11:40:21 11:43:57 14° 13° (NNE) 11:47:35 .
AO-73 17 Oct 11:57:08 11:59:40 15° 306° (NW) 12:02:10 145.935
BUGSAT 1 17 Oct 12:00:36 12:03:23 17° 56° (NE) 12:06:10 437.445
Tancredo 1 17 Oct 12:02:21 12:03:57 23° 162° (SSE) 12:05:34 437.200
LO-87 17 Oct 12:03:38 12:06:30 21° 93° (E) 12:09:21 145.935 - 145.965
PCSat 17 Oct 12:04:45 12:09:55 43° 323° (NW) 12:15:07 145.827
ZACube-1 17 Oct 12:18:40 12:19:14 10° 312° (NW) 12:19:48 437.345
RS-15 17 Oct 12:27:05 12:37:30 38° 252° (WSW) 12:47:28 29.354- 29.394
EO-79 17 Oct 12:29:28 12:33:44 82° 256° (WSW) 12:38:04 145.935-145.965
POLYITAN 1 17 Oct 12:33:11 12:37:29 76° 257° (WSW) 12:41:48 437.675
SO-50 17 Oct 12:33:53 12:37:23 21° 353° (N) 12:40:54 436.795
DELFI C3 17 Oct 12:35:08 12:38:15 23° 298° (WNW) 12:41:22 145.870
Oscar 19 17 Oct 12:35:14 12:39:21 25° 56° (NE) 12:43:29 437.125/150
AIST 2D 17 Oct 12:36:12 12:39:13 26° 266° (W) 12:42:14 435.315
EO-88 17 Oct 12:36:12 12:39:27 30° 294° (WNW) 12:42:40 145.990 - 145.960
Max Valier Satellite 17 Oct 12:38:16 12:41:16 24° 297° (WNW) 12:44:16 145.860
Gurwin Techsat 1B 17 Oct 12:39:38 12:43:33 21° 53° (NE) 12:47:28 435.225
SPROUT 17 Oct 12:40:15 12:41:50 12° 85° (E) 12:43:25 437.525
nSIGHT-1 17 Oct 12:44:45 12:47:06 19° 148° (SSE) 12:49:29 .
ESTCUBE 1 17 Oct 12:52:11 12:56:32 47° 99° (E) 13:00:51 437.505/2401.250
QB50P2 17 Oct 12:53:29 12:57:36 45° 261° (W) 13:01:46 145.880/145.840
YUBILEINY 17 Oct 12:56:09 13:03:48 33° 302° (WNW) 13:11:32 435.215
VELOX 1 17 Oct 12:58:25 13:00:24 13° 86° (E) 13:02:24 145.980
NANOSAT C BR1 17 Oct 13:00:18 13:04:25 47° 261° (W) 13:08:34 145.865
ISS 17 Oct 13:08:32 13:11:14 24° 152° (SSE) 13:13:58 437.550
DUCHIFAT 1 17 Oct 13:13:10 13:17:10 40° 262° (W) 13:21:13 145.980
M-CUBED/EXP-1 PRIME 17 Oct 13:19:15 13:22:34 60° 65° (ENE) 13:25:49 437.505
AO-7 17 Oct 13:27:32 13:34:03 27° 39° (NE) 13:40:34 .
Tancredo 1 17 Oct 13:33:45 13:35:34 45° 181° (S) 13:37:23 437.200
BUGSAT 1 17 Oct 13:34:01 13:38:12 78° 254° (WSW) 13:42:29 437.445
LO-87 17 Oct 13:36:37 13:40:04 40° 292° (WNW) 13:43:30 145.935 - 145.965
PCSat 17 Oct 13:50:34 13:54:41 21° 348° (NNW) 13:58:49 145.827
BEESAT 3 17 Oct 13:53:26 13:56:51 27° 120° (ESE) 14:00:18 437.485
EO-79 17 Oct 14:08:37 14:10:13 12° 275° (W) 14:11:50 145.935-145.965
POLYITAN 1 17 Oct 14:12:49 14:14:02 11° 276° (W) 14:15:15 437.675
Oscar 19 17 Oct 14:13:06 14:18:16 70° 256° (WSW) 14:23:26 437.125/150
SPROUT 17 Oct 14:14:07 14:18:28 81° 105° (ESE) 14:22:46 437.525
DX 1 17 Oct 14:14:41 14:17:48 19° 90° (E) 14:20:53 434.975-435.025
SO-50 17 Oct 14:15:25 14:19:12 25° 17° (NNE) 14:23:01 436.795
Gurwin Techsat 1B 17 Oct 14:17:34 14:22:53 87° 249° (WSW) 14:28:16 435.225
nSIGHT-1 17 Oct 14:19:49 14:22:56 50° 167° (SSE) 14:26:04 .
ESTCUBE 1 17 Oct 14:29:21 14:33:10 28° 299° (WNW) 14:36:57 437.505/2401.250
VELOX 1 17 Oct 14:33:06 14:37:34 84° 105° (ESE) 14:42:00 145.980
AO-85 17 Oct 14:35:04 14:37:41 17° 115° (ESE) 14:40:20 145.980
ITAMSAT 1 17 Oct 14:39:42 14:43:49 24° 55° (NE) 14:47:58 435.822/435.867
ISS 17 Oct 14:44:08 14:47:21 57° 171° (S) 14:50:34 437.550
UKube-1 17 Oct 14:45:33 14:49:04 23° 93° (E) 14:52:33 .
M-CUBED/EXP-1 PRIME 17 Oct 14:55:42 14:57:23 13° 263° (W) 14:59:02 437.505
YUBILEINY 17 Oct 15:01:31 15:04:19 12° 333° (NNW) 15:07:09 435.215
BEESAT 2 17 Oct 15:05:35 15:09:23 42° 125° (SE) 15:13:15 435.950
Tancredo 1 17 Oct 15:05:36 15:07:07 21° 200° (SSW) 15:08:39 437.200
50 SAT 17 Oct 15:07:16 15:10:36 69° 104° (ESE) 15:13:53 437.505
BUGSAT 1 17 Oct 15:13:04 15:14:19 11° 275° (W) 15:15:34 437.445
AO-7 17 Oct 15:17:25 15:25:39 73° 63° (ENE) 15:33:56 .
BEESAT 3 17 Oct 15:30:14 15:34:12 55° 320° (NW) 15:38:11 437.485
PCSat 17 Oct 15:35:46 15:39:57 22° 14° (NNE) 15:44:08 145.827
